[[{"header":{"parameterUnit":"m.s-1","parameterCategory":1,"la1":30.2991,"la2":30.254,"lo1":-89.0895,"lo2":-89.0444,"dy":0.0017,"dx":0.0017,"nx":28,"ny":28,"refTime":"2024-03-10T09:00:00:Z","depth":0,"parameterNumber":2,"parameterNumberName":"U-component_of_WINDS"},"data":[0,0,0,0,0,0,0,0,0,0,0,0,0,0,0,0,0,0,0,0,0,0,0,0,0,0,0,0,0,0,0,0,0,0,0,0,0,0,0,0,0,0,0,0,0,0,0,0,0,0,0,0,0,0,0,0,0,0,0.7356,0.7357,0,0.7403,0.7403,0.7404,0.7422,0.7422,0.7422,0.7422,0.747,0.7471,0.7473,0,0,0,0,0,0,0,0,0,0,0,0,0,0.7285,0.7286,0.7356,0.7357,0.7357,0.7403,0.7403,0.7404,0.7422,0.7422,0.7422,0.7422,0.7469,0.7471,0.7473,0,0,0,0,0,0,0,0,0,0,0,0,0,0.7322,0.7286,0.7356,0.7372,0.7374,0.7403,0.7403,0.7404,0.7422,0.7422,0.7422,0.7421,0.7469,0.7471,0.7473,0.749,0,0,0.7479,0.748,0,0,0,0,0,0,0,0,0.732,0.7325,0.7369,0.7371,0.7373,0.7406,0.7396,0.7433,0.7422,0.7404,0.7422,0.7421,0.7449,0.7453,0.7462,0.7492,0.7494,0.748,0.7481,0.7482,0.7482,0,0,0,0,0,0,0,0.7317,0.7323,0.7375,0.737,0.7372,0.7377,0.7382,0.7403,0.7427,0.7405,0.7407,0.7412,0.745,0.746,0.7463,0.7495,0.748,0.7481,0.7483,0.7484,0.7543,0.7544,0,0,0,0,0,0,0.7312,0.732,0.7373,0.7376,0.7345,0.7379,0.7384,0.7396,0.7427,0.7431,0.7412,0.7413,0.7456,0.7461,0.7465,0.7488,0.7482,0.7484,0.7485,0.7543,0.7543,0.7544,0,0,0,0,0,0,0.731,0.7316,0.7371,0.7349,0.7356,0.738,0.7393,0.7397,0.7407,0.7432,0.7436,0.7418,0.7456,0.7462,0.7484,0.749,0.7485,0.7487,0.7543,0.7543,0.7544,0.7533,0,0,0,0,0,0,0.7308,0.7316,0.7322,0.7349,0.7357,0.7389,0.7393,0.7398,0.741,0.7411,0.7438,0.7442,0.7457,0.7481,0.7486,0.7492,0.7488,0.7542,0.7543,0.7543,0.7533,0.7533,0.7533,0,0,0,0,0,0.7305,0.7317,0.7322,0.7328,0.7365,0.7389,0.7394,0.741,0.741,0.7417,0.7434,0.7442,0.7488,0.7483,0.7489,0.7496,0.7542,0.7543,0.7543,0.7533,0.7533,0.7533,0,0,0,0,0,0,0.7289,0.732,0.7327,0.7347,0.7365,0.7392,0.7401,0.7409,0.7428,0.7428,0.7448,0.7454,0.7474,0.7488,0.7481,0.7515,0.7516,0.7518,0.7505,0.7506,0.7506,0.7502,0.749,0,0,0,0,0,0.7288,0.7305,0.7331,0.7346,0.7355,0.7377,0.7388,0.7398,0.7418,0.7426,0.7444,0.7464,0.7483,0.7495,0.7514,0.7535,0.7542,0.7543,0.7543,0.7543,0.7545,0.7558,0.7559,0.7546,0.7546,0.7546,0,0,0.7286,0.7305,0.7314,0.7344,0.7359,0.7377,0.7383,0.7401,0.7414,0.7429,0.7451,0.7465,0.7488,0.751,0.7521,0.7522,0.755,0.7544,0.7544,0.7545,0.7559,0.756,0.7561,0.7547,0.7547,0.7546,0,0,0.7291,0.7306,0.7321,0.7337,0.7361,0.7375,0.7379,0.7405,0.7415,0.7437,0.745,0.7466,0.7498,0.7515,0.7527,0.754,0.7549,0.7546,0.7546,0.7559,0.756,0.7561,0.7567,0.7568,0.7548,0.7548,0.7547,0,0.7285,0.7311,0.7328,0.7345,0.7359,0.7374,0.739,0.7404,0.7433,0.7442,0.7443,0.7485,0.7501,0.7528,0.7531,0.7541,0.7546,0.7543,0.7559,0.756,0.7561,0.7567,0.7569,0.7547,0.7547,0.7547,0.7547,0,0.7303,0.7321,0.733,0.7358,0.7372,0.7389,0.7409,0.7422,0.7432,0.7447,0.747,0.7491,0.7515,0.7522,0.7532,0.7551,0.7551,0.7555,0.7556,0.7562,0.7567,0.7569,0.7546,0.7547,0.7547,0.7547,0,0,0.7298,0.7336,0.7339,0.7352,0.7381,0.7395,0.7413,0.7437,0.7448,0.7468,0.7484,0.7512,0.7516,0.7531,0.7543,0.7554,0.7564,0.7557,0.7558,0.7558,0.7587,0.7584,0.7586,0.757,0.757,0.7571,0.7586,0,0.7306,0.7339,0.7355,0.7381,0.7398,0.7414,0.743,0.7449,0.7464,0.7482,0.7498,0.7518,0.7522,0.7531,0.7543,0.756,0.757,0.7559,0.7586,0.7587,0.758,0.7589,0.7585,0.7598,0.7588,0.7588,0.7588,0,0.732,0.7341,0.7368,0.7395,0.7403,0.7417,0.7441,0.7458,0.7481,0.7491,0.7507,0.752,0.754,0.754,0.7569,0.7562,0.7574,0.7584,0.7585,0.7588,0.7588,0.7592,0.7602,0.7604,0.7592,0.7591,0.7591,0,0.7315,0.7349,0.737,0.7381,0.7413,0.7423,0.7437,0.746,0.7473,0.7494,0.7504,0.7527,0.754,0.7558,0.7577,0.7575,0.7605,0.7606,0.7614,0.7614,0.7619,0.7619,0.7631,0.7627,0.7627,0.7627,0.7627,0,0.7323,0.7339,0.7368,0.738,0.74,0.7419,0.7438,0.7453,0.7474,0.7491,0.7506,0.7521,0.7545,0.7564,0.7579,0.7601,0.7607,0.7616,0.762,0.7615,0.7614,0.7623,0.7623,0.7627,0.7627,0.7627,0.7627,0,0.7319,0.7339,0.7363,0.7392,0.74,0.7413,0.7438,0.7452,0.7468,0.7489,0.7495,0.7521,0.7544,0.7564,0.7595,0.7605,0.7629,0.7633,0.7621,0.7623,0.763,0.7629,0.7649,0.7653,0.7645,0.7645,0.7645,0,0.7323,0.7336,0.7367,0.7379,0.7393,0.7413,0.7427,0.7448,0.7462,0.749,0.7501,0.7525,0.7546,0.7583,0.7604,0.7628,0.7633,0.7639,0.7637,0.7632,0.7634,0.7633,0.7635,0.7639,0.7639,0.7639,0.7639,0,0.7328,0.7337,0.7357,0.7381,0.7398,0.7417,0.7438,0.7447,0.7472,0.7488,0.7512,0.7528,0.756,0.7584,0.7611,0.7626,0.7637,0.7639,0.7642,0.7637,0.763,0.7635,0.7621,0.7638,0.7638,0.7638,0.7638,0.7638,0.7328,0.7341,0.7365,0.7387,0.7405,0.7424,0.7439,0.7457,0.7477,0.7505,0.7516,0.7541,0.7565,0.7602,0.7618,0.7638,0.764,0.7644,0.7646,0.7647,0.7646,0.7627,0.7643,0.7643,0.7643,0.7643,0.7643,0,0.7334,0.7351,0.7371,0.7399,0.7417,0.7426,0.7449,0.7464,0.7485,0.7507,0.7528,0.7556,0.758,0.7604,0.763,0.7642,0.7648,0.7648,0.7647,0.7651,0.7643,0.7637,0.7643,0.7643,0.7643,0.7643,0.7643,0.7643,0.734,0.7362,0.7375,0.7406,0.7423,0.7448,0.746,0.7478,0.7496,0.7527,0.7548,0.7563,0.7586,0.7614,0.7637,0.7644,0.7653,0.7652,0.766,0.7652,0.7651,0.7651,0.7646,0.7654,0.7654,0.7667,0.7667,0.7667]},{"header":{"parameterUnit":"m.s-1","parameterCategory":1,"la1":30.2991,"la2":30.254,"lo1":-89.0895,"lo2":-89.0444,"dy":0.0017,"dx":0.0017,"nx":28,"ny":28,"refTime":"2024-03-10T09:00:00:Z","depth":0,"parameterNumber":3,"parameterNumberName":"V-component_of_WINDS"},"data":[0,0,0,0,0,0,0,0,0,0,0,0,0,0,0,0,0,0,0,0,0,0,0,0,0,0,0,0,0,0,0,0,0,0,0,0,0,0,0,0,0,0,0,0,0,0,0,0,0,0,0,0,0,0,0,0,0,0,-4.4444,-4.4445,0,-4.4504,-4.4505,-4.4505,-4.4525,-4.4525,-4.4525,-4.4525,-4.458,-4.4582,-4.4584,0,0,0,0,0,0,0,0,0,0,0,0,0,-4.4344,-4.4346,-4.4444,-4.4445,-4.4446,-4.4504,-4.4505,-4.4505,-4.4525,-4.4525,-4.4525,-4.4524,-4.458,-4.4582,-4.4584,0,0,0,0,0,0,0,0,0,0,0,0,0,-4.4394,-4.4347,-4.4444,-4.4463,-4.4465,-4.4504,-4.4505,-4.4506,-4.4525,-4.4525,-4.4525,-4.4524,-4.4579,-4.4582,-4.4584,-4.4607,0,0,-4.4592,-4.4593,0,0,0,0,0,0,0,0,-4.4391,-4.4398,-4.4459,-4.4461,-4.4464,-4.4507,-4.449,-4.4539,-4.4525,-4.4502,-4.4525,-4.4524,-4.4556,-4.456,-4.4572,-4.461,-4.4612,-4.4592,-4.4594,-4.4595,-4.4596,0,0,0,0,0,0,0,-4.4388,-4.4395,-4.4468,-4.446,-4.4463,-4.4467,-4.4474,-4.4499,-4.453,-4.4504,-4.4506,-4.4513,-4.4557,-4.457,-4.4574,-4.4613,-4.4592,-4.4594,-4.4596,-4.4597,-4.4675,-4.4675,0,0,0,0,0,0,-4.4382,-4.4392,-4.4466,-4.4469,-4.4426,-4.4469,-4.4477,-4.4493,-4.453,-4.4535,-4.4513,-4.4514,-4.4565,-4.4571,-4.4576,-4.4606,-4.4595,-4.4597,-4.4599,-4.4674,-4.4675,-4.4675,0,0,0,0,0,0,-4.4379,-4.4388,-4.4463,-4.4431,-4.4441,-4.4471,-4.449,-4.4495,-4.4507,-4.4537,-4.4542,-4.4521,-4.4565,-4.4572,-4.46,-4.4609,-4.4598,-4.4601,-4.4674,-4.4674,-4.4675,-4.4667,0,0,0,0,0,0,-4.4376,-4.4387,-4.4396,-4.4431,-4.4443,-4.4487,-4.449,-4.4496,-4.4512,-4.4514,-4.4545,-4.455,-4.4566,-4.4596,-4.4603,-4.4612,-4.4603,-4.4673,-4.4674,-4.4675,-4.4667,-4.4667,-4.4668,0,0,0,0,0,-4.4373,-4.439,-4.4397,-4.4406,-4.4456,-4.4488,-4.4494,-4.4514,-4.4513,-4.4522,-4.4542,-4.4549,-4.4607,-4.4599,-4.4606,-4.4616,-4.4672,-4.4674,-4.4675,-4.4666,-4.4667,-4.4668,0,0,0,0,0,0,-4.4352,-4.4395,-4.4403,-4.4432,-4.4457,-4.4491,-4.4504,-4.4514,-4.4537,-4.4537,-4.4559,-4.4565,-4.4592,-4.4607,-4.4597,-4.4642,-4.464,-4.4643,-4.4631,-4.4632,-4.4633,-4.4628,-4.4605,0,0,0,0,0,-4.4352,-4.4376,-4.4411,-4.4434,-4.4446,-4.4473,-4.4487,-4.4501,-4.4526,-4.4536,-4.4557,-4.458,-4.4604,-4.4619,-4.4642,-4.4669,-4.4677,-4.468,-4.4681,-4.4681,-4.4683,-4.47,-4.4702,-4.4679,-4.4679,-4.4679,0,0,-4.435,-4.4376,-4.4389,-4.443,-4.4451,-4.4475,-4.4481,-4.4505,-4.4523,-4.4539,-4.4568,-4.4584,-4.4612,-4.464,-4.4653,-4.4653,-4.4692,-4.4683,-4.4683,-4.4685,-4.4702,-4.4704,-4.4706,-4.468,-4.468,-4.468,0,0,-4.4358,-4.4381,-4.4403,-4.4424,-4.4457,-4.4475,-4.4481,-4.4515,-4.4527,-4.4557,-4.457,-4.4591,-4.4631,-4.4651,-4.4666,-4.4686,-4.4693,-4.4693,-4.4696,-4.4713,-4.4714,-4.4716,-4.4724,-4.4727,-4.4695,-4.4695,-4.4695,0,-4.4351,-4.4389,-4.4412,-4.4438,-4.4455,-4.4474,-4.4497,-4.4516,-4.4553,-4.4565,-4.4564,-4.4617,-4.4636,-4.4671,-4.4676,-4.4687,-4.4694,-4.4689,-4.4713,-4.4714,-4.4716,-4.4724,-4.4727,-4.4694,-4.4694,-4.4694,-4.4694,0,-4.4379,-4.4406,-4.442,-4.4459,-4.4478,-4.4501,-4.4528,-4.4545,-4.4557,-4.4576,-4.4606,-4.4631,-4.4661,-4.467,-4.4681,-4.4706,-4.4705,-4.4709,-4.4707,-4.4718,-4.4726,-4.4729,-4.4694,-4.4694,-4.4694,-4.4694,0,0,-4.4374,-4.4429,-4.4433,-4.4452,-4.4491,-4.4511,-4.4536,-4.4567,-4.4582,-4.4608,-4.4629,-4.4664,-4.4669,-4.4686,-4.4699,-4.4714,-4.473,-4.4716,-4.4717,-4.4718,-4.4761,-4.4758,-4.4761,-4.4736,-4.4737,-4.4737,-4.4759,0,-4.4388,-4.4436,-4.4459,-4.4495,-4.4521,-4.454,-4.4562,-4.4588,-4.4606,-4.463,-4.4649,-4.4674,-4.4678,-4.4689,-4.4704,-4.4725,-4.4739,-4.4724,-4.4755,-4.4756,-4.4748,-4.4765,-4.4762,-4.4781,-4.4762,-4.4762,-4.4763,0,-4.441,-4.4439,-4.4479,-4.4518,-4.4529,-4.4549,-4.4581,-4.4603,-4.4633,-4.4645,-4.4667,-4.4681,-4.4708,-4.4705,-4.4742,-4.4732,-4.4746,-4.4759,-4.476,-4.4763,-4.476,-4.4769,-4.4787,-4.479,-4.4767,-4.4767,-4.4767,0,-4.4404,-4.4452,-4.4484,-4.4499,-4.4544,-4.4558,-4.4577,-4.4607,-4.4625,-4.4653,-4.4665,-4.4694,-4.471,-4.4733,-4.4754,-4.4751,-4.479,-4.4789,-4.4801,-4.48,-4.4807,-4.4806,-4.4828,-4.4817,-4.4817,-4.4817,-4.4816,0,-4.4417,-4.444,-4.4482,-4.45,-4.4528,-4.4555,-4.4581,-4.4602,-4.4629,-4.4652,-4.467,-4.469,-4.4718,-4.4742,-4.4759,-4.4788,-4.4795,-4.4805,-4.4809,-4.4804,-4.4802,-4.4813,-4.4812,-4.4817,-4.4817,-4.4817,-4.4817,0,-4.4413,-4.4442,-4.4477,-4.4519,-4.453,-4.4548,-4.4583,-4.4602,-4.4623,-4.4652,-4.466,-4.4692,-4.4722,-4.4746,-4.4784,-4.4796,-4.4826,-4.4831,-4.4816,-4.4819,-4.4829,-4.4828,-4.4858,-4.4864,-4.4849,-4.4849,-4.4849,0,-4.4419,-4.4439,-4.4484,-4.4502,-4.4522,-4.455,-4.457,-4.4597,-4.4617,-4.4655,-4.4669,-4.4701,-4.4728,-4.4774,-4.48,-4.483,-4.4835,-4.4844,-4.4839,-4.4834,-4.4836,-4.4834,-4.4837,-4.4844,-4.4844,-4.4844,-4.4844,0,-4.4428,-4.4442,-4.4471,-4.4506,-4.4531,-4.4559,-4.4587,-4.46,-4.4633,-4.4654,-4.4687,-4.4708,-4.4749,-4.478,-4.4813,-4.4831,-4.4843,-4.4846,-4.485,-4.4844,-4.4835,-4.4841,-4.4818,-4.4844,-4.4844,-4.4844,-4.4844,-4.4844,-4.443,-4.4449,-4.4485,-4.4517,-4.4542,-4.4569,-4.459,-4.4615,-4.4643,-4.4681,-4.4695,-4.4728,-4.4759,-4.4806,-4.4825,-4.485,-4.4851,-4.4857,-4.4859,-4.486,-4.486,-4.4832,-4.4856,-4.4856,-4.4856,-4.4856,-4.4856,0,-4.444,-4.4465,-4.4495,-4.4536,-4.4562,-4.4574,-4.4607,-4.4627,-4.4657,-4.4686,-4.4713,-4.4751,-4.4782,-4.4812,-4.4845,-4.486,-4.4866,-4.4867,-4.4866,-4.487,-4.4856,-4.485,-4.4862,-4.4862,-4.4862,-4.4862,-4.4862,-4.4862,-4.4448,-4.4482,-4.4501,-4.4547,-4.4572,-4.4606,-4.4624,-4.4649,-4.4674,-4.4716,-4.4743,-4.4763,-4.4793,-4.4828,-4.4858,-4.4866,-4.4877,-4.4877,-4.4886,-4.4872,-4.4871,-4.487,-4.4864,-4.4879,-4.4879,-4.4898,-4.4898,-4.4898]}]]